DW3649 Athens GR current weather conditions

sailwx.info

Wind from 058 at 0 knots

Air temperature 7.2° C
Dewpoint 0.4° C

Last reported at 2018-Jan-22 22:00 UTC.
Time now 2018-Jan-22 22:26 UTC

Location: N 37°58' E 023°45'.
View on Google Maps.

See reports from other nearby stations

  
Tides and Currents Weather Stations Pressure Air Temp Water Temp Dewpoint Dewpoint Depression Visibility Wind Speed Wind Dir Waves Ship Positions
date/time (UTC)wind fromknots sea level pressurealtimeterstation pressurevisibilityair tempwater tempwave heightnotes
2018-Jan-22 22:00 058 0 7.2
2018-Jan-22 21:45 058 1 7.8
2018-Jan-22 21:30 057 3 7.8
2018-Jan-22 21:15 056 2 7.8
2018-Jan-22 21:00 051 0 7.8
2018-Jan-22 20:44 051 0 8.3
2018-Jan-22 20:30 051 0 8.3
2018-Jan-22 20:14 051 8.3
2018-Jan-22 19:59 051 0 8.3
2018-Jan-22 19:44 051 2 8.9
2018-Jan-22 19:29 048 3 8.9
2018-Jan-22 19:14 042 1 8.9
2018-Jan-22 18:59 042 1 8.9
2018-Jan-22 18:44 042 1 8.9
2018-Jan-22 18:29 042 0 8.9
2018-Jan-22 18:14 041 1 8.9
2018-Jan-22 17:59 041 0 8.3
2018-Jan-22 17:44 040 2 8.3
2018-Jan-22 17:29 046 3 8.3
2018-Jan-22 17:14 055 3 8.3
2018-Jan-22 16:59 038 2 8.3
2018-Jan-22 16:44 030 1 8.9
2018-Jan-22 16:29 325 1 8.9
2018-Jan-22 16:14 327 1 8.9
2018-Jan-22 15:59 328 2 8.9
2018-Jan-22 15:44 325 3 8.9
2018-Jan-22 15:29 302 6 8.9
2018-Jan-22 15:14 295 6 8.9
2018-Jan-22 14:59 290 6 8.9
2018-Jan-22 14:44 303 6 9.4
2018-Jan-22 14:29 292 6 9.4
2018-Jan-22 14:14 309 8 9.4
2018-Jan-22 13:59 332 6 9.4
2018-Jan-22 13:44 317 7 10.0
2018-Jan-22 13:29 294 7 10.0
2018-Jan-22 13:14 297 6 10.0
2018-Jan-22 12:59 324 7 9.4
2018-Jan-22 12:44 326 7 10.0
2018-Jan-22 12:29 298 6 10.0
2018-Jan-22 12:14 313 9 9.4
2018-Jan-22 11:59 291 5 10.0
2018-Jan-22 11:43 290 6 10.0
2018-Jan-22 11:28 338 6 10.0
2018-Jan-22 11:13 295 7 10.0
2018-Jan-22 10:58 319 7 10.0
2018-Jan-22 10:43 289 5 10.0
2018-Jan-22 10:28 308 6 10.0
2018-Jan-22 10:13 309 6 10.0
2018-Jan-22 09:58 327 6 9.4
2018-Jan-22 09:43 294 10 9.4
2018-Jan-22 09:28 317 9 8.9
2018-Jan-22 09:13 281 9 8.9
2018-Jan-22 08:58 301 11 8.9
2018-Jan-22 08:43 291 9 8.9
2018-Jan-22 08:28 327 9 8.9
2018-Jan-22 08:13 290 8 8.9
2018-Jan-22 07:58 294 6 8.9
2018-Jan-22 07:43 343 6 8.9
2018-Jan-22 07:28 314 6 8.9
2018-Jan-22 07:13 308 7 8.3
2018-Jan-22 06:58 321 6 8.3
2018-Jan-22 06:43 329 2 8.3
2018-Jan-22 06:28 327 4 8.3
2018-Jan-22 06:13 005 3 8.9
2018-Jan-22 05:58 338 3 9.4
2018-Jan-22 05:43 332 2 10.0
2018-Jan-22 05:28 321 3 10.0
2018-Jan-22 05:13 182 0 10.0
2018-Jan-22 04:58 179 10.6
2018-Jan-22 04:43 179 10.6
2018-Jan-22 04:28 179 10.0
2018-Jan-22 04:13 179 10.0
2018-Jan-22 03:58 179 10.6
2018-Jan-22 03:43 179 10.6
2018-Jan-22 03:28 179 0 10.6
2018-Jan-22 03:13 179 10.6
2018-Jan-22 02:57 179 1 10.6
2018-Jan-22 02:43 179 1 11.1
2018-Jan-22 02:28 180 2 10.6
2018-Jan-22 02:12 180 2 10.6
2018-Jan-22 01:57 180 0 10.6
2018-Jan-22 01:42 180 0 10.6
2018-Jan-22 01:27 180 2 10.6
2018-Jan-22 01:12 136 2 10.6
2018-Jan-22 00:57 207 2 10.6
2018-Jan-22 00:42 207 0 10.6
2018-Jan-22 00:27 207 1 10.6
2018-Jan-22 00:12 207 0 10.6
2018-Jan-21 23:57 207 0 10.6
2018-Jan-21 23:42 207 1 10.6
2018-Jan-21 23:27 215 2 11.1
2018-Jan-21 23:12 221 2 11.1
2018-Jan-21 22:57 224 1 11.1
2018-Jan-21 22:42 224 2 11.1
2018-Jan-21 22:27 224 2 11.7
2018-Jan-21 22:12 224 11.7
2018-Jan-21 21:57 224 11.7
2018-Jan-21 21:42 224 11.7
2018-Jan-21 21:27 224 12.2
2018-Jan-21 21:12 224 12.2
2018-Jan-21 20:57 224 12.2
2018-Jan-21 20:42 224 0 12.2
2018-Jan-21 20:27 224 2 12.2
2018-Jan-21 20:12 224 3 12.2
2018-Jan-21 19:57 212 3 12.8
2018-Jan-21 19:42 145 9 12.8
2018-Jan-21 19:27 161 6 13.3
2018-Jan-21 19:12 157 7 13.3
2018-Jan-21 18:57 148 6 13.3
2018-Jan-21 18:42 157 5 13.3
2018-Jan-21 18:27 161 6 13.3
2018-Jan-21 18:11 169 6 13.3
2018-Jan-21 17:56 136 7 13.3
2018-Jan-21 17:41 152 6 13.9
2018-Jan-21 17:26 138 6 13.3
2018-Jan-21 17:11 148 7 13.3
2018-Jan-21 16:56 136 6 13.9
2018-Jan-21 16:41 157 6 13.9
2018-Jan-21 16:26 142 7 13.9
2018-Jan-21 16:11 142 8 13.9
2018-Jan-21 15:56 161 6 13.9
2018-Jan-21 15:41 148 8 13.9
2018-Jan-21 15:26 166 9 14.4
2018-Jan-21 15:11 137 8 14.4
2018-Jan-21 14:56 154 7 14.4
2018-Jan-21 14:41 146 8 14.4
2018-Jan-21 14:26 120 7 14.4
2018-Jan-21 14:11 150 12 14.4
2018-Jan-21 13:56 132 10 14.4
2018-Jan-21 13:41 141 10 14.4
2018-Jan-21 13:26 141 10 14.4
2018-Jan-21 13:11 139 11 14.4
2018-Jan-21 12:56 150 10 14.4
2018-Jan-21 12:41 154 9 14.4
2018-Jan-21 12:26 132 9 14.4
2018-Jan-21 12:11 157 7 14.4
2018-Jan-21 11:56 156 8 14.4
2018-Jan-21 11:41 138 8 14.4
2018-Jan-21 11:26 157 9 14.4
2018-Jan-21 11:11 167 8 14.4
2018-Jan-21 10:56 161 12 14.4
2018-Jan-21 10:41 144 9 14.4
2018-Jan-21 10:26 145 10 14.4
2018-Jan-21 10:11 153 9 14.4
2018-Jan-21 09:56 150 6 14.4
2018-Jan-21 09:41 153 9 13.9
2018-Jan-21 09:25 159 9 13.9
2018-Jan-21 09:10 136 8 13.3
2018-Jan-21 08:55 146 9 13.3
2018-Jan-21 08:40 164 4 12.8
2018-Jan-21 08:25 171 5 12.8
2018-Jan-21 08:10 146 7 12.8
2018-Jan-21 07:55 167 6 13.3
2018-Jan-21 07:40 186 4 13.3
2018-Jan-21 07:25 167 6 13.3
2018-Jan-21 07:10 143 6 13.3
2018-Jan-21 06:55 150 6 13.3
2018-Jan-21 06:40 141 7 13.3
2018-Jan-21 06:25 143 8 13.3
2018-Jan-21 06:10 124 6 12.8
2018-Jan-21 05:55 144 6 12.8
2018-Jan-21 05:40 140 4 12.8
2018-Jan-21 05:25 149 6 12.8
2018-Jan-21 05:10 150 6 12.8
2018-Jan-21 04:55 148 6 12.8
2018-Jan-21 04:40 152 6 13.3
2018-Jan-21 04:25 123 5 13.3
2018-Jan-21 04:10 146 5 12.8
2018-Jan-21 03:55 148 5 12.8
2018-Jan-21 03:40 149 1 12.8
2018-Jan-21 03:25 149 2 12.8
2018-Jan-21 03:10 149 5 12.8
2018-Jan-21 02:55 152 2 12.8
2018-Jan-21 02:40 153 6 12.8
2018-Jan-21 02:25 148 6 12.8
2018-Jan-21 02:10 172 6 12.8
2018-Jan-21 01:55 159 6 12.8
2018-Jan-21 01:40 162 6 12.8
2018-Jan-21 01:25 155 7 12.8
2018-Jan-21 01:10 144 6 12.8
2018-Jan-21 00:55 152 7 12.8
2018-Jan-21 00:40 159 6 13.3
2018-Jan-21 00:25 150 6 13.3
2018-Jan-21 00:10 155 7 13.3
2018-Jan-20 23:55 152 8 13.3
2018-Jan-20 23:40 148 6 13.3
2018-Jan-20 23:25 151 4 12.8
2018-Jan-20 23:10 155 6 12.8
2018-Jan-20 22:55 166 10 12.8
2018-Jan-20 22:40 153 6 13.3
2018-Jan-20 22:25 154 7 13.3
2018-Jan-20 22:10 146 5 13.3